OBJECT J, 63990

Orbit data source: Space-Track

You're viewing an Uncataloged Satellite

Recently launched and/or uncataloged satellites may have evolving metadata. Metadata may include but not limited to: Owner, Maufacturer, Bus, Motor, and Mission.

OBJECT J, 63990 is a Chinese satellite in SSO that was launched on Wed, 14 May 2025 UTC via a CHANG ZHENG 2D launch vehicle from the Jiuquan Satellite Launch Center, China (JSC). Unknown objects in Earth's orbit typically refer to objects detected orbiting the Earth but have not yet been identified or cataloged. These objects could be anything from previously untracked satellites, spent rocket stages, debris from satellite collisions, or even natural meteoroids temporarily captured by Earth's gravity.

Loading next visibility...
Identifier
63990, 2025-100J
Orbit
SSO
Country
Flag of CNCN / PRC
Related business
None
Manufacturer
Unknown
Mission
Operational Commercial Technology
Bus & Motor
Unknown
Mass
Unknown
Launch date (UTC)
2025-05-14 (7 months ago)
Launch vehicle
CHANG ZHENG 2D
Launch site
Jiuquan Satellite Launch Center, China (JSC)
Object type
Unknown
Shape & HBR
Box + 2 Pan, 1.1 m
Radar Cross Section
0.135 m², Large (>1 m²)

Expand to show TLE details & history
Last TLE update: 19 hours ago

TLE from 19 hours ago
0 OBJECT J
1 63990U 25100J   25340.88019447  .00040775  00000-0  15318-2 0  9993
2 63990  97.3860  53.0444 0008386 255.1786 104.8524 15.27030102 31404
Epoch: 2025-12-06T21:07Z
TLE epoch observation values (Epoch: 2025-12-06T21:07:28.802Z)
Latitude
-0.00003°
Longitude
20.27281°
Altitude
489.277 km
Speed
7.62 km/s
True Right ascension
03h 32m 10s
True Declination
0° 00' 00"
Sunlit
Object was in full shadow at epoch
Visualization orbit readout
Latitude
Unknown
Longitude
Unknown
Altitude
Unknown
Speed
Unknown
Apparent Right ascension
Unknown
Apparent Declination
Unknown
Sunlit
N/A
Visualization observer readout
Local Sidereal Time
14:26:12
Azimuth
Unknown
Elevation
Unknown
Doppler factor
Unknown
Orbital elements
Apogee altitude
487.404 km
Perigee altitude
475.899 km
Semi-major axis
6,859.789 km
Eccentricity
0.00084
Inclination
97.386°
RAAN
53.0444°
Arg. of periapsis
255.1786°
True anomaly
104.94526°
Mean anomaly
104.8524°
Eccentric anomaly
104.89883°
Mean motion
3.82012 °/min
Orbital period
94.24 mins
BSTAR
0.0015318
Loading maneuver chart data...
Computing Atmospheric mass density...
Loading historical data...
Loading historical data...
Loading historical data...
Loading historical data...
Loading historical data...
Loading historical data...
Loading historical data...

Documentation

Showing up to 5 results
|